This is the latest recevied weather packets stored in our database for station/object W4SNA-2. If no packets are shown the sender has not sent any weather packets the latest 10 day(s).
| Time | Temp. | Humidity | Pressure | Rain* | Wind** | Luminosity | Snow |
|---|---|---|---|---|---|---|---|
| 1777918558 | 21.11° C | 47% | 1016.8 hPa | 0 mm | - | - | - |
| 1777918255 | 21.11° C | 45% | 1016.8 hPa | 0 mm | - | - | - |
| 1777917955 | 21.11° C | 48% | 1016.8 hPa | 0 mm | - | - | - |
| 1777917656 | 21.11° C | 45% | 1016.9 hPa | 0 mm | - | - | - |
| 1777917357 | 21.67° C | 46% | 1016.9 hPa | 0 mm | - | - | - |
| 1777917056 | 21.11° C | 47% | 1017.1 hPa | 0 mm | - | - | - |
| 1777916757 | 20.56° C | 48% | 1017.1 hPa | 0 mm | - | - | - |
| 1777916456 | 20.56° C | 47% | 1017 hPa | 0 mm | - | - | - |
| 1777916155 | 20.56° C | 47% | 1017.1 hPa | 0 mm | - | - | - |
| 1777915858 | 20.56° C | 46% | 1017.2 hPa | 0 mm | - | - | - |
| 1777915556 | 21.11° C | 45% | 1017.2 hPa | 0 mm | - | - | - |
| 1777915256 | 21.11° C | 47% | 1017.3 hPa | 0 mm | - | - | - |
| 1777914959 | 21.11° C | 46% | 1017.4 hPa | 0 mm | - | - | - |
| 1777914637 | 20.56° C | 48% | 1017.5 hPa | 0 mm | - | - | - |
| 1777914336 | 20° C | 46% | 1017.3 hPa | 0 mm | - | - | - |
| 1777914037 | 20° C | 47% | 1017.6 hPa | 0 mm | - | - | - |
| 1777913737 | 20° C | 48% | 1017.7 hPa | 0 mm | - | - | - |
| 1777913437 | 19.44° C | 51% | 1017.7 hPa | 0 mm | - | - | - |
| 1777913128 | 18.89° C | 49% | 1017.7 hPa | 0 mm | - | - | - |
| 1777912828 | 18.89° C | 49% | 1017.8 hPa | 0 mm | - | - | - |
| 1777912535 | 18.89° C | 49% | 1017.6 hPa | 0 mm | - | - | - |
| 1777912228 | 18.33° C | 49% | 1017.8 hPa | 0 mm | - | - | - |
| 1777911928 | 17.78° C | 49% | 1018 hPa | 0 mm | - | - | - |
| 1777911628 | 17.78° C | 51% | 1018.2 hPa | 0 mm | - | - | - |
| 1777911332 | 17.78° C | 50% | 1018.2 hPa | 0 mm | - | - | - |
* Rain latest hour (hover to see other rain measurements)
** Current wind speed in m/s (hover to see current wind gust speed)